Home > Weather > St. Paul > Past weeks

Flag for USA Past Weather in St. Paul, Minnesota, USA — Yesterday and Last 2 Weeks

Now
74 °F

Clear.


Feels Like: 76 °F
Forecast: 67 / 87 °F
Wind: 12 mph from Northwest

Location: St. Paul Downtown Holman Field

Current Time: Jul 25, 2016 at 1:13:34 AM

Latest Report: Jul 24, 2016 at 11:53 PM


Visibility: 10 mi

Pressure: 29.94 "Hg

Humidity: 64%

Dew Point: 61 °F

Location of St. PaulLocation

Past Weather in St. Paul — Graph

°F

St. Paul Temperature Yesterday

Maximum temperature yesterday: 84 °F (at 2:53 PM)
Minimum temperature yesterday: 74 °F (at 12:53 AM)
Average temperature yesterday: 78 °F

High & Low Weather Summary for the Past Weeks

 TemperatureHumidityPressure
High95 °F (Jul 22, 2:53 PM)97% (Jul 23, 12:53 PM)30.18 "Hg (Jul 23, 12:53 PM)
Low60 °F (Jul 16, 4:53 AM)25% (Jul 22, 2:53 PM)29.53 "Hg (Jul 11, 8:53 PM)
Average76 °F71%29.90 "Hg
* Reported Jul 9 11:53 PM — Jul 24 11:53 PM, St. Paul, Weather by CustomWeather, © 2016

Note: Actual official high and low records may vary slightly from our data, if they occured in-between our weather recording intervals... More about our weather records

Advertising

St. Paul Weather History for the Previous 24 Hours

Scroll right to see more
 ConditionsComfort  
Time TempWeatherWind HumidityBarometerVisibility
11:53 PM
Sun, Jul 24
74 °FClear.12 mph64%29.94 "Hg10 mi
10:53 PM75 °FClear.9 mph66%29.94 "Hg10 mi
9:53 PM76 °FClear.9 mph64%29.93 "Hg10 mi
8:53 PM77 °FSunny.10 mph60%29.90 "Hg10 mi
7:53 PM79 °FPassing clouds.16 mph56%29.90 "Hg10 mi
6:53 PM81 °FSunny.17 mph49%29.90 "Hg10 mi
5:53 PM82 °FSunny.14 mph51%29.90 "Hg10 mi
4:53 PM83 °FSunny.17 mph50%29.91 "Hg10 mi
3:53 PM83 °FSunny.15 mph50%29.89 "Hg10 mi
2:53 PM84 °FSunny.8 mph49%29.85 "Hg10 mi
1:53 PM82 °FSunny.15 mph53%29.85 "Hg10 mi
12:53 PM82 °FSunny.18 mph51%29.85 "Hg10 mi
11:53 AM82 °FWarm.15 mph53%29.88 "Hg10 mi
10:53 AM81 °FPassing clouds.12 mph60%29.84 "Hg10 mi
9:53 AM79 °FSunny.13 mph67%29.82 "Hg10 mi
8:53 AM78 °FSunny.10 mph76%29.81 "Hg10 mi
7:53 AM76 °FPassing clouds.8 mph85%29.80 "Hg9 mi
6:53 AM74 °FSunny.8 mph91%29.78 "Hg10 mi
5:53 AM74 °FPassing clouds.No wind94%29.76 "Hg10 mi
4:53 AM75 °FPassing clouds.7 mph94%29.75 "Hg10 mi
3:53 AM76 °FLow clouds.10 mph94%29.74 "Hg8 mi
2:53 AM75 °FThundershowers. Low clouds.5 mph90%29.74 "Hg10 mi
1:53 AM74 °FLow clouds.6 mph94%29.74 "Hg10 mi
Weather by CustomWeather, © 2016

See weather overviewHow to use our weather pages